Location: Newark
(40.7119°N, 74.0097°W)
Time: 16:56:34
(UTC+00:00)

ISS - Pass Details

Date: 30 June 2021
Orbit: 419 x 421 km, 51.6° (Epoch: 02 August)

Event Time Altitude Azimuth Distance (km) Brightness Sun altitude
Exits shadow 07:44:17 36° 236° (SW) 678 -3.2 -15.6°
Maximum altitude 07:45:31 86° 321° (NW) 424 -3.8 -15.4°
Drops below altitude 10° 07:48:54 10° 53° (NE) 1,501 0.3 -15.0°
Sets 07:51:00 0° 54° (NE) 2,368 1.7 -14.8°
